Location: Narrabri
(30.3170°S, 149.7830°E)
Time: 23:19:53
(UTC+10:00)

Amateur Radio Satellites - All Passes

Search period start: 24 April 2017 22:49
Search period end: 25 April 2017 22:49
Location: Narrabri, 30.3170°S, 149.7830°E

Satellite Date Start Highest point End Downlink Frequencies (MHz)
Time Altitude Azimuth
EO-79 24 Apr 22:50:00 22:54:05 49° 105° (ESE) 22:58:15 145.935-145.965
DUCHIFAT 1 24 Apr 22:55:34 22:59:36 46° 105° (ESE) 23:03:42 145.980
PCSat 24 Apr 22:56:54 23:00:58 21° 124° (SE) 23:04:59 145.827
O/OREOS (USA 219) 24 Apr 23:08:11 23:11:02 16° 243° (WSW) 23:13:55 437.305
ESTCUBE 1 24 Apr 23:16:16 23:20:46 63° 79° (E) 23:25:12 437.505/2401.250
POLYITAN 1 24 Apr 23:28:18 23:32:26 51° 280° (W) 23:36:39 437.675
SPROUT 24 Apr 23:31:18 23:34:33 20° 84° (E) 23:37:46 437.525
QB50P2 24 Apr 23:34:57 23:38:55 38° 279° (W) 23:42:57 145.880/145.840
50 SAT 24 Apr 23:40:31 23:41:49 12° 85° (E) 23:43:08 437.505
VELOX 1 24 Apr 23:42:24 23:46:20 30° 82° (E) 23:50:14 145.980
AIST 2D 24 Apr 23:47:05 23:48:20 11° 274° (W) 23:49:35 435.315
NANOSAT C BR1 25 Apr 00:00:30 00:03:51 23° 277° (W) 00:07:16 145.865
BUGSAT 1 25 Apr 00:08:54 00:12:57 72° 282° (WNW) 00:17:07 437.445
AO-85 25 Apr 00:09:26 00:14:11 81° 65° (ENE) 00:19:20 145.980
UKube-1 25 Apr 00:17:22 00:20:17 17° 84° (E) 00:23:09 .
Gurwin Techsat 1B 25 Apr 00:34:10 00:38:53 33° 109° (ESE) 00:43:39 435.225
DUCHIFAT 1 25 Apr 00:34:54 00:35:27 10° 273° (W) 00:36:00 145.980
PCSat 25 Apr 00:39:23 00:44:28 42° 289° (WNW) 00:49:31 145.827
DX 1 25 Apr 00:43:14 00:47:35 57° 79° (E) 00:51:53 434.975-435.025
BEESAT 3 25 Apr 00:47:32 00:50:49 27° 68° (ENE) 00:54:06 437.485
Oscar 19 25 Apr 00:54:38 00:59:50 83° 283° (WNW) 01:05:04 437.125/150
SPROUT 25 Apr 01:06:46 01:10:21 25° 252° (WSW) 01:13:54 437.525
50 SAT 25 Apr 01:11:49 01:14:44 25° 253° (WSW) 01:17:38 437.505
VELOX 1 25 Apr 01:19:25 01:22:31 19° 250° (WSW) 01:25:35 145.980
AO-7 25 Apr 01:21:54 01:28:00 23° 120° (ESE) 01:34:07 .
BEESAT 25 Apr 01:43:24 01:44:53 11° 87° (E) 01:46:22 436.000
UKube-1 25 Apr 01:52:27 01:56:16 29° 252° (WSW) 02:00:02 .
AO-85 25 Apr 01:53:37 01:55:21 12° 227° (SW) 01:57:06 145.980
YUBILEINY 25 Apr 02:02:25 02:08:45 21° 108° (ESE) 02:14:59 435.215
RS-15 25 Apr 02:11:50 02:17:45 15° 145° (SE) 02:23:44 29.354- 29.394
ITAMSAT 1 25 Apr 02:14:32 02:19:29 46° 107° (ESE) 02:24:31 435.822/435.867
Gurwin Techsat 1B 25 Apr 02:14:36 02:18:47 23° 276° (W) 02:23:01 435.225
BEESAT 2 25 Apr 02:16:50 02:20:44 63° 242° (WSW) 02:24:38 435.950
ITUPSAT 1 25 Apr 02:19:38 02:23:55 31° 82° (E) 02:28:09 437.325
BEESAT 3 25 Apr 02:25:44 02:28:21 17° 235° (SW) 02:30:58 437.485
Tancredo 1 25 Apr 03:06:12 03:08:34 19° 142° (SE) 03:10:55 437.200
SO-50 25 Apr 03:07:28 03:11:39 29° 124° (SE) 03:15:46 436.795
ISS 25 Apr 03:07:38 03:09:52 16° 144° (SE) 03:12:04 437.550
AO-7 25 Apr 03:11:40 03:19:57 68° 285° (WNW) 03:28:22 .
BEESAT 25 Apr 03:18:10 03:22:54 54° 254° (WSW) 03:27:33 436.000
MOZHAYETS 4 25 Apr 03:35:28 03:40:06 74° 256° (WSW) 03:44:40
ITAMSAT 1 25 Apr 03:55:59 03:59:05 16° 275° (W) 04:02:15 435.822/435.867
YUBILEINY 25 Apr 03:57:22 04:06:04 65° 272° (W) 04:14:39 435.215
ITUPSAT 1 25 Apr 03:57:54 04:01:30 21° 249° (WSW) 04:05:03 437.325
KKS-1 25 Apr 04:07:18 04:11:31 37° 81° (E) 04:15:39 437.445
CUBESAT XI-V 25 Apr 04:19:18 04:23:48 49° 81° (E) 04:28:16 437.345
RS-15 25 Apr 04:21:41 04:32:42 64° 120° (ESE) 04:44:10 29.354- 29.394
JUGNU 25 Apr 04:30:45 04:34:41 18° 15° (NNE) 04:38:35 437.505
Tancredo 1 25 Apr 04:41:46 04:44:29 26° 308° (NW) 04:47:09 437.200
DOVE 4 25 Apr 04:42:42 04:46:21 30° 107° (ESE) 04:50:02 437.250
XW-2F 25 Apr 04:43:08 04:45:41 17° 109° (ESE) 04:48:17 145.980 - 146.000
ISS 25 Apr 04:43:20 04:46:27 36° 310° (NW) 04:49:31 437.550
CUTE-I 25 Apr 04:43:31 04:47:38 23° 111° (ESE) 04:51:48 437.470
STARS 25 Apr 04:46:26 04:50:43 43° 81° (E) 04:54:57 437.465
SO-50 25 Apr 04:48:05 04:51:57 24° 290° (WNW) 04:55:46 436.795
NUDT-PHONESAT 25 Apr 05:02:02 05:05:07 24° 107° (ESE) 05:08:14 437.300
HO-68 25 Apr 05:12:13 05:15:49 15° 120° (ESE) 05:19:24 435.675
XW-2D 25 Apr 05:29:30 05:33:23 83° 101° (ESE) 05:37:18 145.860 - 145.880
XW-2B 25 Apr 05:36:22 05:40:14 82° 282° (WNW) 05:44:11 145.730 - 145.750
LilacSat-2 25 Apr 05:44:22 05:48:12 58° 280° (W) 05:52:06 437.200
KKS-1 25 Apr 05:44:59 05:47:41 16° 248° (WSW) 05:50:22 437.445
XW-2C 25 Apr 05:48:15 05:52:02 54° 280° (W) 05:55:53 145.795 - 145.815
KAITUO 1B 25 Apr 05:52:17 05:56:04 62° 280° (W) 05:59:54 145.475/437.950
XW-2A 25 Apr 05:53:50 05:55:32 13° 109° (ESE) 05:57:16 145.665 - 145.685
CUBESAT XI-V 25 Apr 05:58:48 06:00:40 12° 247° (WSW) 06:02:33 437.345
SEEDS 25 Apr 06:01:08 06:02:42 12° 112° (ESE) 06:04:17 437.485
CUBEBUG 2 25 Apr 06:14:05 06:16:10 13° 113° (ESE) 06:18:16 437.445
XW-2F 25 Apr 06:16:28 06:19:36 23° 276° (W) 06:22:45 145.980 - 146.000
JUGNU 25 Apr 06:18:12 06:23:09 28° 5° (N) 06:28:06 437.505
DOVE 4 25 Apr 06:21:46 06:24:05 15° 274° (W) 06:26:25 437.250
CUTE-I 25 Apr 06:22:36 06:27:24 34° 278° (W) 06:32:17 437.470
STARS 25 Apr 06:24:28 06:26:37 13° 247° (WSW) 06:28:45 437.465
RS-15 25 Apr 06:35:17 06:44:16 29° 285° (WNW) 06:53:35 29.354- 29.394
NUDT-PHONESAT 25 Apr 06:36:36 06:38:57 16° 275° (W) 06:41:20 437.300
M-CUBED/EXP-1 PRIME 25 Apr 06:42:29 06:45:28 21° 78° (ENE) 06:48:36 437.505
HO-68 25 Apr 06:55:21 07:02:33 85° 287° (WNW) 07:09:52 435.675
ZACube-1 25 Apr 07:06:40 07:09:42 18° 111° (ESE) 07:12:46 437.345
STRAND 1 25 Apr 07:07:11 07:12:19 56° 79° (E) 07:17:22 437.568
CUTE 1.7 + AOD 2 25 Apr 07:08:51 07:13:04 56° 280° (W) 07:17:20 437.475
NO-84 25 Apr 07:09:28 07:12:54 69° 230° (SW) 07:16:45 435.350 FM
AAUSAT CUBESAT 2 25 Apr 07:13:59 07:17:56 42° 105° (ESE) 07:21:55 437.432
AO-73 25 Apr 07:14:48 07:18:03 20° 110° (ESE) 07:21:23 145.935
XW-2A 25 Apr 07:25:15 07:28:01 23° 277° (W) 07:30:50 145.665 - 145.685
Oscar 11 25 Apr 07:33:12 07:36:49 26° 108° (ESE) 07:40:28 .
SEEDS 25 Apr 07:33:53 07:37:56 43° 279° (W) 07:42:01 437.485
SRMSAT 25 Apr 07:36:18 07:40:38 21° 13° (NNE) 07:44:59 437.500
UWE-3 25 Apr 07:39:56 07:44:23 83° 104° (ESE) 07:49:02 435.000/436.395/437.385
O/OREOS (USA 219) 25 Apr 07:43:15 07:47:07 26° 114° (ESE) 07:50:57 437.305
CUBEBUG 2 25 Apr 07:48:02 07:52:15 44° 279° (W) 07:56:41 437.445
JUGNU 25 Apr 08:06:44 08:11:42 28° 355° (N) 08:16:39 437.505
M-CUBED/EXP-1 PRIME 25 Apr 08:16:46 08:19:45 22° 248° (WSW) 08:22:55 437.505
DELFI C3 25 Apr 08:21:06 08:24:15 23° 108° (ESE) 08:27:26 145.870
ZACube-1 25 Apr 08:41:39 08:45:38 32° 277° (W) 08:49:45 437.345
AO-85 25 Apr 08:47:37 08:51:20 19° 128° (SE) 08:54:53 145.980
STRAND 1 25 Apr 08:48:24 08:50:55 14° 246° (WSW) 08:53:27 437.568
AO-73 25 Apr 08:50:10 08:54:01 28° 277° (W) 08:57:59 145.935
HO-68 25 Apr 08:50:21 08:50:58 10° 272° (W) 08:51:36 435.675
AAUSAT CUBESAT 2 25 Apr 08:52:31 08:53:31 11° 273° (W) 08:54:32 437.432
UNISAT 6 25 Apr 09:03:09 09:06:13 17° 86° (E) 09:09:13 437.425
Oscar 11 25 Apr 09:09:36 09:12:51 20° 276° (W) 09:16:07 .
PRISM 25 Apr 09:14:05 09:17:53 35° 81° (E) 09:21:39 437.425
O/OREOS (USA 219) 25 Apr 09:22:55 09:26:18 21° 281° (W) 09:29:39 437.305
SRMSAT 25 Apr 09:24:14 09:29:19 29° 3° (N) 09:34:24 437.500
OBJECT BX 25 Apr 09:37:27 09:40:55 38° 279° (W) 09:44:26 145.990 - 145.960
FO-29 25 Apr 09:41:16 09:48:45 46° 82° (E) 09:55:41 435.910
JUGNU 25 Apr 09:56:08 10:00:10 19° 346° (NNW) 10:04:12 437.505
DELFI C3 25 Apr 09:56:09 09:58:55 18° 276° (W) 10:01:42 145.870
ESTCUBE 1 25 Apr 10:10:16 10:14:08 28° 108° (ESE) 10:18:02 437.505/2401.250
TIGRISAT 25 Apr 10:17:48 10:22:31 67° 256° (WSW) 10:27:05 435.000
AO-85 25 Apr 10:27:03 10:32:04 47° 292° (WNW) 10:36:46 145.980
VELOX 1 25 Apr 10:35:34 10:37:44 14° 112° (ESE) 10:39:55 145.980
UNISAT 6 25 Apr 10:38:39 10:42:57 35° 253° (WSW) 10:47:08 437.425
BEESAT 2 25 Apr 10:41:31 10:43:08 12° 127° (SE) 10:44:45 435.950
EO-79 25 Apr 10:42:09 10:44:08 13° 86° (E) 10:46:07 145.935-145.965
BEESAT 3 25 Apr 10:46:19 10:49:56 39° 120° (ESE) 10:53:31 437.485
DUCHIFAT 1 25 Apr 10:47:24 10:48:57 12° 87° (E) 10:50:30 145.980
LO-87 25 Apr 10:49:13 10:52:31 37° 279° (W) 10:55:53 145.935 - 145.965
PRISM 25 Apr 10:50:45 10:52:48 13° 249° (WSW) 10:54:50 437.425
SRMSAT 25 Apr 11:13:05 11:18:01 27° 353° (N) 11:22:59 437.500
AIST 2D 25 Apr 11:15:17 11:18:52 82° 79° (ENE) 11:22:23 435.315
POLYITAN 1 25 Apr 11:18:52 11:22:56 38° 81° (E) 11:26:55 437.675
QB50P2 25 Apr 11:25:11 11:29:26 51° 80° (E) 11:33:36 145.880/145.840
FO-29 25 Apr 11:26:39 11:33:20 31° 247° (WSW) 11:39:40 435.910
DX 1 25 Apr 11:33:33 11:37:01 23° 109° (ESE) 11:40:29 434.975-435.025
50 SAT 25 Apr 11:38:25 11:41:39 38° 105° (ESE) 11:44:55 437.505
ESTCUBE 1 25 Apr 11:47:33 11:50:51 20° 276° (W) 11:54:12 437.505/2401.250
NANOSAT C BR1 25 Apr 11:49:24 11:53:44 87° 78° (ENE) 11:58:00 145.865
SPROUT 25 Apr 11:53:14 11:57:28 71° 282° (WNW) 12:01:48 437.525
BUGSAT 1 25 Apr 11:56:42 12:00:17 25° 83° (E) 12:03:49 437.445
VELOX 1 25 Apr 12:09:37 12:13:46 40° 279° (W) 12:17:57 145.980
EO-79 25 Apr 12:15:58 12:19:59 38° 254° (WSW) 12:23:58 145.935-145.965
BEESAT 2 25 Apr 12:17:23 12:21:02 40° 293° (WNW) 12:24:39 435.950
DUCHIFAT 1 25 Apr 12:20:41 12:24:44 41° 254° (WSW) 12:28:45 145.980
BEESAT 3 25 Apr 12:26:29 12:27:04 10° 288° (WNW) 12:27:39 437.485
UKube-1 25 Apr 12:40:15 12:44:33 76° 281° (WNW) 12:48:55 .
POLYITAN 1 25 Apr 12:56:08 12:58:18 14° 248° (WSW) 13:00:27 437.675
Gurwin Techsat 1B 25 Apr 12:56:43 13:00:43 21° 84° (E) 13:04:41 435.225
SRMSAT 25 Apr 13:03:00 13:06:40 17° 344° (NNW) 13:10:19 437.500
QB50P2 25 Apr 13:04:02 13:04:41 10° 247° (WSW) 13:05:20 145.880/145.840
DX 1 25 Apr 13:09:40 13:13:03 22° 277° (W) 13:16:28 434.975-435.025
Oscar 19 25 Apr 13:12:09 13:17:14 56° 79° (E) 13:22:17 437.125/150
ITUPSAT 1 25 Apr 13:21:20 13:24:48 20° 111° (ESE) 13:28:15 437.325
PCSat 25 Apr 13:31:35 13:36:52 58° 69° (ENE) 13:42:12 145.827
BUGSAT 1 25 Apr 13:32:16 13:35:25 20° 250° (WSW) 13:38:32 437.445
NO-84 25 Apr 13:50:37 13:51:09 10° 147° (SSE) 13:51:42 435.350 FM
BEESAT 25 Apr 14:18:16 14:23:04 89° 95° (E) 14:27:56 436.000
MOZHAYETS 4 25 Apr 14:31:07 14:35:38 52° 105° (ESE) 14:40:14
ITAMSAT 1 25 Apr 14:33:40 14:38:05 27° 83° (E) 14:42:27 435.822/435.867
Gurwin Techsat 1B 25 Apr 14:35:47 14:40:40 36° 251° (WSW) 14:45:31 435.225
Oscar 19 25 Apr 14:53:34 14:56:00 13° 246° (WSW) 14:58:26 437.125/150
YUBILEINY 25 Apr 14:55:35 15:02:54 30° 95° (E) 15:10:13 435.215
ITUPSAT 1 25 Apr 14:57:58 15:02:18 33° 278° (W) 15:06:42 437.325
KKS-1 25 Apr 15:00:41 15:03:35 17° 111° (ESE) 15:06:31 437.445
CUBESAT XI-V 25 Apr 15:17:10 15:21:00 25° 109° (ESE) 15:24:51 437.345
PCSat 25 Apr 15:17:23 15:20:36 16° 234° (SW) 15:23:51 145.827
AO-7 25 Apr 15:19:54 15:28:13 62° 76° (ENE) 15:36:24 .
NO-84 25 Apr 15:25:04 15:29:33 66° 131° (SE) 15:33:55 435.350 FM
STARS 25 Apr 15:38:11 15:41:15 19° 111° (ESE) 15:44:22 437.465
MOZHAYETS 4 25 Apr 16:11:45 16:13:01 11° 273° (W) 16:14:16
ITAMSAT 1 25 Apr 16:12:56 16:17:25 29° 250° (WSW) 16:21:51 435.822/435.867
KKS-1 25 Apr 16:35:52 16:39:50 32° 278° (W) 16:43:51 437.445
RS-15 25 Apr 16:35:58 16:37:52 11° 81° (E) 16:39:47 29.354- 29.394
DOVE 4 25 Apr 16:47:04 16:50:10 16° 85° (E) 16:53:18 437.250
YUBILEINY 25 Apr 16:50:49 16:59:12 47° 259° (W) 17:07:44 435.215
CUBESAT XI-V 25 Apr 16:54:28 16:58:13 24° 276° (W) 17:02:00 437.345
NO-84 25 Apr 17:05:05 17:06:41 12° 298° (WNW) 17:08:17 435.350 FM
CUTE-I 25 Apr 17:07:11 17:10:04 14° 86° (E) 17:12:55 437.470
XW-2D 25 Apr 17:09:30 17:11:23 13° 86° (E) 17:13:13 145.860 - 145.880
STARS 25 Apr 17:13:34 17:17:20 28° 278° (W) 17:21:10 437.465
AO-7 25 Apr 17:13:53 17:20:17 25° 241° (WSW) 17:26:39 .
SO-50 25 Apr 17:15:56 17:20:01 32° 69° (ENE) 17:24:12 436.795
XW-2B 25 Apr 17:15:56 17:18:17 16° 85° (E) 17:20:37 145.730 - 145.750
LilacSat-2 25 Apr 17:23:56 17:26:58 22° 84° (E) 17:29:56 437.200
XW-2C 25 Apr 17:27:06 17:30:11 23° 84° (E) 17:33:12 145.795 - 145.815
KAITUO 1B 25 Apr 17:30:05 17:32:49 19° 84° (E) 17:35:29 145.475/437.950
XW-2F 25 Apr 17:53:34 17:57:20 51° 80° (E) 18:00:59 145.980 - 146.000
NUDT-PHONESAT 25 Apr 18:11:08 18:14:56 75° 79° (E) 18:18:38 437.300
STRAND 1 25 Apr 18:17:16 18:22:07 44° 107° (ESE) 18:27:03 437.568
DOVE 4 25 Apr 18:23:13 18:27:51 43° 255° (WSW) 18:32:40 437.250
HO-68 25 Apr 18:30:32 18:36:19 26° 83° (E) 18:42:01 435.675
RS-15 25 Apr 18:37:15 18:48:26 74° 67° (ENE) 18:59:18 29.354- 29.394
XW-2D 25 Apr 18:42:14 18:45:33 28° 253° (WSW) 18:48:50 145.860 - 145.880
CUTE-I 25 Apr 18:45:02 18:50:19 53° 254° (WSW) 18:55:33 437.470
XW-2B 25 Apr 18:49:17 18:52:24 24° 252° (WSW) 18:55:30 145.730 - 145.750
XW-2A 25 Apr 18:52:18 18:55:23 29° 83° (E) 18:58:25 145.665 - 145.685
SO-50 25 Apr 18:56:57 19:00:30 21° 234° (SW) 19:04:08 436.795
M-CUBED/EXP-1 PRIME 25 Apr 18:57:24 19:00:37 38° 284° (WNW) 19:03:46 437.505
LilacSat-2 25 Apr 18:58:23 19:01:02 18° 251° (WSW) 19:03:38 437.200
CUTE 1.7 + AOD 2 25 Apr 18:59:34 19:03:32 37° 82° (E) 19:07:26 437.475
XW-2C 25 Apr 19:01:38 19:04:09 17° 251° (WSW) 19:06:38 145.795 - 145.815
KAITUO 1B 25 Apr 19:03:54 19:06:40 19° 252° (WSW) 19:09:24 145.475/437.950
AAUSAT CUBESAT 2 25 Apr 19:04:55 19:05:16 10° 87° (E) 19:05:37 437.432
SEEDS 25 Apr 19:23:14 19:27:17 45° 81° (E) 19:31:17 437.485
Tancredo 1 25 Apr 19:35:21 19:38:28 68° 225° (SW) 19:41:39 437.200
UWE-3 25 Apr 19:35:54 19:39:52 27° 84° (E) 19:43:43 435.000/436.395/437.385
ISS 25 Apr 19:42:17 19:45:35 80° 226° (SW) 19:48:56 437.550
CUBEBUG 2 25 Apr 19:44:19 19:49:04 61° 80° (E) 19:53:39 437.445
STRAND 1 25 Apr 19:58:15 20:01:25 16° 274° (W) 20:04:37 437.568
PRISM 25 Apr 19:59:41 20:01:19 12° 112° (ESE) 20:02:56 437.425
HO-68 25 Apr 20:17:17 20:24:07 47° 250° (WSW) 20:30:53 435.675
XW-2A 25 Apr 20:26:56 20:27:46 11° 249° (WSW) 20:28:35 145.665 - 145.685
ZACube-1 25 Apr 20:35:14 20:39:48 78° 80° (E) 20:44:13 437.345
CUTE 1.7 + AOD 2 25 Apr 20:36:54 20:38:58 13° 249° (WSW) 20:41:01 437.475
AAUSAT CUBESAT 2 25 Apr 20:36:55 20:40:53 43° 255° (WSW) 20:44:47 437.432
AO-73 25 Apr 20:43:15 20:47:49 87° 77° (ENE) 20:52:12 145.935
RS-15 25 Apr 20:52:42 21:01:39 27° 227° (SW) 21:10:33 29.354- 29.394
Oscar 11 25 Apr 21:01:14 21:05:35 70° 256° (WSW) 21:09:52 .
SEEDS 25 Apr 21:01:28 21:02:29 11° 248° (WSW) 21:03:30 437.485
TIGRISAT 25 Apr 21:10:11 21:14:33 52° 105° (ESE) 21:19:04 435.000
OBJECT BX 25 Apr 21:12:09 21:15:16 25° 83° (E) 21:18:21 145.990 - 145.960
UWE-3 25 Apr 21:12:32 21:16:05 22° 250° (WSW) 21:19:33 435.000/436.395/437.385
CUBEBUG 2 25 Apr 21:23:56 21:25:01 11° 246° (WSW) 21:26:05 437.445
FO-29 25 Apr 21:30:32 21:36:44 73° 106° (ESE) 21:43:53 435.910
UNISAT 6 25 Apr 21:30:42 21:35:12 81° 280° (W) 21:39:53 437.425
PRISM 25 Apr 21:32:20 21:36:10 39° 279° (W) 21:40:03 437.425
DELFI C3 25 Apr 21:37:23 21:41:23 85° 78° (ENE) 21:45:21 145.870
AIST 2D 25 Apr 21:45:52 21:47:19 12° 110° (ESE) 21:48:47 435.315
O/OREOS (USA 219) 25 Apr 21:49:00 21:53:31 89° 241° (WSW) 21:58:03 437.305
POLYITAN 1 25 Apr 22:07:05 22:09:26 14° 112° (ESE) 22:11:46 437.675
QB50P2 25 Apr 22:12:52 22:15:51 19° 110° (ESE) 22:18:52 145.880/145.840
LO-87 25 Apr 22:21:59 22:24:59 23° 83° (E) 22:27:58 145.935 - 145.965
PCSat 25 Apr 22:26:49 22:29:54 15° 127° (SE) 22:32:57 145.827
NANOSAT C BR1 25 Apr 22:35:50 22:39:30 29° 108° (ESE) 22:43:12 145.865
